Regional Weather Roundup
Issued by NWS

Home | Current Version | Previous Version | Text Only | Print | Product List | Glossary On
Versions: 1 2 3 4 5 6 7 8 9 10 11 12 13 14 15 16 17 18 19 20 21 22 23 24 25 26 27 28 29 30 31 32 33 34 35 36 37 38 39 40 41 42 43 44 45 46 47 48 49 50
354
ASUS44 KJAN 220903
RWRMS

MISSISSIPPI HOURLY WEATHER ROUNDUP
NATIONAL WEATHER SERVICE JACKSON MS
400 AM CDT TUE JUL 22 2014

NOTE: "FAIR: INDICATES FEW OR NO CLOUDS BELOW 12,000 FEET WITH NO
SIGNIFICANT WEATHER AND/OR OBSTRUCTIONS TO VISIBILITY.

MSZ001>002-007>008-010>013-018>021-025>028-034>036-221000-
NORTHWEST MISSISSIPPI

CITY           SKY/WX    TMP DP  RH WIND       PRES   REMARKS
CLARKSDALE     FAIR      68  68 100 CALM      30.06F
CLEVELAND      FAIR      68  68 100 N3        30.04F FOG
GREENWOOD      CLEAR     68  66  93 CALM      30.04S FOG
GREENVILLE     CLEAR     70  68  93 N3        30.04S
GRENADA        FAIR      66  66 100 CALM      30.05S
OLIVE BRANCH   CLEAR     68  68 100 CALM      30.07S
OXFORD         FAIR      66  66 100 CALM      30.07S FOG
TUNICA         SUNNY     70  68  94 CALM      30.07S FOG
$$

MSZ003>006-009-014>017-022>024-029>033-037>039-221000-
NORTHEAST MISSISSIPPI

CITY           SKY/WX    TMP DP  RH WIND       PRES   REMARKS
BELMONT        FAIR      70  69  98 CALM      30.05S FOG
COLUMBUS AFB   PTCLDY    72  72 100 CALM      30.03S
CORINTH        FAIR      68  66  94 CALM      30.05S FOG
GOLDN TRIANGLE MOCLDY    72  68  88 CALM      30.03S
STARKVILLE     FAIR      70  68  94 CALM      30.02F
TUPELO         CLEAR     71  68  90 CALM      30.03F FOG
$$

MSZ040-058-221000-
CENTRAL MISSISSIPPI

CITY           SKY/WX    TMP DP  RH WIND       PRES   REMARKS
JACKSON INTL   CLEAR     72  69  90 CALM      30.02S
JACKSON HAWKNS PTCLDY    72  68  87 CALM      30.03S
MERIDIAN KEY   MOCLDY    72  69  90 N5        30.01S
MERIDIAN NAS   MOCLDY    73  70  90 CALM      30.02S
RAYMOND        FAIR      68  64  88 CALM      30.03S HAZE
VICKSBURG      CLEAR     71  69  93 CALM      30.02F
$$

MSZ059>079-221000-
SOUTH MISSISSIPPI

CITY           SKY/WX    TMP DP  RH WIND       PRES   REMARKS
BROOKHAVEN     FAIR      72  72 100 CALM      30.04R
COLUMBIA       FAIR      70  70 100 CALM      30.00R FOG
HATTIESBURG    MOCLDY    74  72  93 CALM      30.00S
MCCOMB         PTCLDY    70  68  93 NW3       30.01F
NATCHEZ        MOCLDY    70  66  88 CALM      30.03S
PINE BELT      MOCLDY    73  70  88 N5        30.01F
$$

MSZ080>082-221000-
COASTAL MISSISSIPPI

CITY           SKY/WX    TMP DP  RH WIND       PRES   REMARKS
BILOXI         MOCLDY    76  72  87 CALM      29.98S
PASCAGOULA     PTCLDY    73  72  96 CALM      29.98S
GULFPORT       PTCLDY    77  70  79 W5        29.98S
$$



USA.gov is the U.S. government's official web portal to all federal, state and local government web resources and services.